Location: Holyhead Bay
(53.3667°N, 4.6667°W)
Time: 19:05:48
(UTC+00:00)

SMAP - Pass Details

Date: 24 November 2020
Orbit: 681 x 683 km, 98.1° (Epoch: 17 January)

Event Time Altitude Azimuth Distance (km) Brightness Sun altitude
Rises 17:38:28 0° 169° (SSE) 3,036 6.5 -12.6°
Reaches altitude 10° 17:40:42 10° 171° (S) 2,125 5.7 -12.9°
Maximum altitude 17:45:21 73° 256° (WSW) 720 3.3 -13.6°
Drops below altitude 10° 17:50:03 10° 342° (NNW) 2,143 5.7 -14.3°
Sets 17:52:18 0° 344° (NNW) 3,063 6.4 -14.6°
